Regional Weather Roundup
Issued by NWS Newport/Morehead, NC

Home | Current Version | Previous Version | Text Only | Print | Product List | Glossary On
Versions: 1 2 3 4 5 6 7 8 9 10 11 12 13 14 15 16 17 18 19 20 21 22 23 24 25 26 27 28 29 30 31 32 33 34 35 36 37 38 39 40 41 42 43 44 45 46 47 48 49 50
000
ASUS42 KMHX 091425
RWRMHX
WEATHER ROUNDUP FOR EASTERN NORTH CAROLINA
NATIONAL WEATHER SERVICE NEWPORT/MOREHEAD CITY NC
900 AM EST TUE FEB 09 2016

NOTE: "FAIR" INDICATES FEW OR NO CLOUDS BELOW 12,000 FEET
WITH NO SIGNIFICANT WEATHER AND/OR OBSTRUCTIONS TO VISIBILITY

NCZ015>017-031-032-045>047-102-103-091500-
NORTH COAST

CITY           SKY/WX    TMP DP  RH WIND       PRES   REMARKS
EDENTON        MOSUNNY   42  36  79 W10G16    29.64R
ELIZABETH CITY MOSUNNY   41  38  89 W9        29.61R
KITTY HAWK     MOSUNNY   43  38  83 W10G16    29.58R
MANTEO         MOSUNNY   42  38  87 W9        29.61R

$$

NCZ045>047-081-094-103-104-091500-
CENTRAL COAST

CITY           SKY/WX    TMP DP  RH WIND       PRES   REMARKS
FRISCO         MOSUNNY   44  39  82 W10G16    29.62R
SWANQUARTER      N/A     43 N/A N/A W14       29.62S

$$

NCZ095-097-098-100-101-091500-
SOUTHERN COAST

CITY           SKY/WX    TMP DP  RH WIND       PRES   REMARKS
BEAUFORT       PTSUNNY   43  38  82 W12       29.68R
CEDAR ISLAND     N/A     43 N/A N/A W9G22     29.71R
JACKSONVILLE   PTSUNNY   42  37  82 W12       29.69R
PINEY ISLAND   MOSUNNY  N/A N/A N/A W18       29.66R
WILMINGTON     MOSUNNY   43  33  68 W15       29.72R


$$

NCZ011>013-027>030-043-044-078>080-089-090>093-098-091500-
COASTAL PLAIN

CITY           SKY/WX    TMP DP  RH WIND       PRES   REMARKS
AHOSKIE        CLOUDY    38  32  80 SW3       29.64S
CLINTON        DRIZZLE   38  37  97 SW8G16    29.71R
ELIZABETHTOWN  CLOUDY    38  30  72 W9        29.73R
GOLDSBORO      CLOUDY    39  39 100 W10       29.66R
GREENVILLE     PTSUNNY   41  36  81 W6        29.69R
HAVELOCK       PTSUNNY   41  39  93 W13       29.68R
KENANSVILLE    CLOUDY    40  37  88 SW9       29.71R
KINSTON        MOSUNNY   39  39 100 W7        29.68R
NEW BERN       PTSUNNY   40  38  93 W8        29.68S
RICHLANDS      CLOUDY    43  32  65 W12       29.70R
ROCKY MOUNT    CLOUDY    39  32  76 W6        29.66R
WASHINGTON     MOSUNNY   42  33  72 CALM      29.65R
WHITEVILLE     MOSUNNY   40  28  62 W7        29.75R

$$

AMZ130-135-150-152-154-156-158-170-250-252-270-ANZ085-086-088-633-658-670-091500-
MARINE OBSERVATIONS

STATION/POSITION TIME  TEMP    WIND        PRES    WAVE   SWELL
                       AIR SEA DIR/SP/G            HT/PER HT/PER
                 (UTC) (F)     (DEG/KT/KT) (MB)    (FT/S) (FT/S)
CHESAPEAKE LIGHT 1400   42     290/ 18/ 20 1002.2
64 E VA BEACH    1350   46 52  290/ 23/ 27  999.5   11/14  10/14
DUCK             1400   41     270/ 13/ 16 1001.7
2 E DUCK         1411      44                N/A     7/14   7/14
OREGON INLET     1400   42 45  260/  8/ 12 1002.3
13E OREGON INLT  1400      47                N/A    12/15  10/15
HATTERAS CG      1400   43 52  280/ 15/ 17 1002.8
DIAMOND BUOY     1350   47 73  290/ 16/ 19 1002.8   11/14  10/14
CAPE LOOKOUT     NOT AVBL
BEAUFORT LAB     1400   43 47  270/  6/  9 1003.8
30 SE NEW RVR IN 1408   46 60              1004.8
30 SE NEW RVR IN 1325      60                N/A     7/ 7   3/15
27 SE WRIGHTSVLE 1308   37 61  290/ 21/ 29 1005.2
5 SE WRIGHTSVLE  1308   42 51  280/ 17/ 23 1005.8
225 S CAPE HAT   1350   59 69  280/ 31/ 39   N/A    17/10  11/10
41 SE CHARLESTON 1350   46 65  270/ 25/ 31 1010.0    8/ 7   2/14

$$



USA.gov is the U.S. government's official web portal to all federal, state and local government web resources and services.